LMRST-SAT

Last updated on Fri Aug 29 2025 00:03:48 GMT+0000 (Coordinated Universal Time)

1 40971U 15058H 25239.91176021 .00003699 00000+0 33783-3 0 9991 2 40971 64.7752 104.7175 0152312 170.5481 189.8556 14.88188021 69872
UTC large
Height (km)
Speed (km/s)
/
Latitude / Longitude
Inclination (degrees)
Orbital Period (minutes)
Azimuth
Elevation
Range (km)
Doppler Factor

Next 0 passes for location: London (51.5072 / 0.1276)

Sorry there are no passes over London.